Wetbulb
49.41 48.82 48.38 48.22 48.02 47.33 46.60 47.04 46.89 47.62 48.41 48.57 47.90 48.22 48.41 48.35 48.64 49.43 50.68 49.10 47.89 47.13 46.90 42.42 43.63 41.85 42.88 43.22 36.83 37.39 37.03 37.08 35.60 36.87 40.13 40.48 38.51 37.06 36.76 35.55 30.20 28.78 28.49 27.11 30.48 29.88 27.94 35.60 31.89 31.86 37.43 33.91 35.38 34.82
49.23 48.44 48.13 48.19 47.93 47.51 46.78 46.52 46.23 46.64 47.44 47.83 48.05 47.88 47.81 47.89 47.64 49.10 46.84 46.57 47.39 43.32 42.16 40.71 41.93 41.67 41.52 40.28 41.60 39.38 41.64 38.90 40.41 38.11 41.48 41.83 35.39 34.85 37.52 32.58 36.75 31.64 37.88 33.85 34.75 34.83 37.34 36.14 34.63 36.63 37.72 35.19 34.57 33.90
48.99 48.15 47.85 48.27 47.74 47.54 46.98 46.25 45.88 45.94 46.57 47.09 47.78 48.01 47.68 47.62 47.59 48.10 47.02 47.22 44.35 42.43 43.12 38.52 38.82 40.62 41.49 41.19 41.59 38.79 40.44 43.85 43.45 43.88 45.17 43.26 40.18 39.15 33.61 36.19 33.07 34.96 37.17 34.11 34.62 37.88 36.76 36.35 35.57 36.36 37.15 36.37 36.30 35.64
49.26 48.08 47.78 48.00 48.02 47.73 46.84 46.09 45.78 45.58 45.46 45.76 46.78 47.19 47.41 47.19 47.36 47.10 45.89 46.81 43.76 42.08 39.95 39.69 41.23 39.02 42.06 41.43 40.98 41.96 41.11 43.02 43.93 46.17 38.04 39.57 39.09 39.96 39.32 38.78 37.52 36.08 36.49 35.90 35.62 37.42 36.65 37.90 37.84 36.91 36.89 37.46 36.54 35.58
49.55 47.98 47.62 47.63 47.38 47.72 46.84 46.05 45.67 45.16 44.68 45.06 45.56 47.10 46.94 46.74 46.65 46.70 44.69 47.98 46.15 43.10 36.65 38.29 37.88 39.76 41.10 41.01 39.89 41.25 40.77 41.27 41.51 39.95 39.90 38.24 37.97 36.19 35.12 34.89 34.93 35.71 36.43 35.31 36.44 41.11 39.51 39.93 40.47 38.62 36.28 36.04 36.00 34.80
49.51 48.78 48.03 47.47 47.01 47.05 46.88 45.78 45.51 44.83 44.45 44.42 45.14 46.57 46.51 46.41 46.41 44.03 39.93 44.94 45.81 44.80 38.43 35.63 37.65 37.28 39.65 40.11 40.00 39.83 40.36 40.79 41.79 42.01 41.88 37.79 35.70 35.44 32.75 32.06 41.47 39.26 40.59 41.99 41.49 41.14 37.40 36.92 40.45 38.63 36.89 36.47 36.37 34.99
49.34 48.82 48.32 46.62 46.61 46.89 46.50 45.45 45.04 44.35 44.01 44.02 44.66 44.87 45.62 46.10 45.54 40.06 40.28 43.61 46.95 45.22 37.16 33.14 33.73 35.99 39.16 39.95 38.87 37.93 38.35 38.96 39.80 39.92 36.04 38.27 34.22 35.31 35.36 35.45 42.71 40.87 40.69 40.54 38.16 37.57 34.05 37.22 36.17 37.58 37.39 37.09 39.31 35.50
49.12 48.65 47.63 46.53 46.48 46.94 45.81 45.33 44.21 43.49 43.57 43.89 44.35 44.50 44.81 45.46 45.60 41.44 44.93 46.24 46.11 40.77 39.97 32.72 34.30 31.68 37.15 34.93 33.79 38.88 37.36 38.12 38.49 38.79 33.64 34.10 31.40 32.80 30.38 38.34 41.09 42.56 41.98 40.36 37.23 36.60 36.90 38.58 37.88 36.76 36.89 36.32 34.63 33.67
48.73 48.33 46.86 46.46 46.52 46.61 45.64 45.00 43.77 43.22 43.25 43.62 43.80 44.09 44.36 42.39 38.65 43.15 46.12 44.70 43.99 40.27 32.85 32.25 32.96 31.73 34.97 35.04 34.77 34.46 38.35 34.13 35.44 33.78 34.80 34.56 32.50 29.44 36.13 38.10 39.84 41.78 41.42 40.59 37.67 36.17 36.96 36.51 36.65 35.98 35.45 34.63 33.77 33.19
48.15 47.66 47.20 46.64 46.82 46.01 45.48 44.19 43.37 42.46 42.66 42.98 42.32 39.83 34.94 42.13 46.58 45.08 41.20 38.56 36.94 34.68 34.93 32.51 37.29 30.99 34.24 33.92 34.77 34.57 35.31 36.30 29.95 33.33 33.68 31.26 33.29 39.38 40.85 41.81 41.89 42.69 42.98 39.85 34.33 32.63 34.50 34.37 35.63 35.38 34.82 35.20 35.10 33.93
47.53 47.23 47.29 47.49 46.69 45.60 44.62 43.69 42.59 41.43 42.13 42.26 37.40 35.98 41.42 44.73 42.52 38.57 32.92 31.81 31.76 30.04 32.09 34.50 37.78 30.07 34.59 32.93 33.73 35.07 32.42 33.49 29.29 33.60 31.88 31.14 29.09 36.03 43.05 43.60 44.70 44.43 44.37 42.78 42.40 41.17 39.00 38.39 37.09 35.96 35.43 35.38 35.24 34.19
46.84 47.13 47.57 46.91 46.33 45.00 43.96 43.01 42.22 40.95 41.13 39.78 38.99 41.10 40.08 35.27 32.57 30.95 31.14 31.85 31.03 32.04 35.10 35.92 35.09 35.67 32.42 34.65 34.52 32.44 32.68 31.62 27.63 31.63 29.32 28.29 35.98 41.84 41.51 43.58 45.00 45.73 44.29 43.58 41.94 40.83 39.32 38.84 38.68 37.47 36.57 35.62 35.27 34.63
46.93 47.26 47.02 46.57 45.77 44.32 43.36 42.50 42.28 41.46 40.87 41.55 36.03 32.22 31.76 31.08 27.60 27.49 28.00 30.66 30.94 35.70 34.21 32.92 30.77 31.24 31.08 34.52 33.85 33.30 31.32 28.27 32.46 27.63 27.46 31.85 39.71 41.40 41.90 42.91 41.50 42.73 43.51 43.31 41.81 41.51 39.61 39.15 39.05 37.80 36.78 36.67 35.97 34.16
46.75 46.54 46.37 45.94 45.02 43.76 42.53 42.27 42.15 40.60 39.04 31.97 27.26 20.76 27.82 26.00 27.57 31.76 33.58 32.73 36.38 36.42 35.28 35.47 31.36 32.72 33.05 33.10 31.88 31.21 33.14 29.43 25.14 25.65 29.18 37.13 40.34 42.21 43.10 41.55 41.19 40.83 41.75 42.02 41.29 40.70 38.50 38.76 38.17 38.24 37.67 37.07 35.63 33.24
46.32 45.95 45.78 44.77 44.22 42.82 42.10 42.49 41.67 40.56 36.87 27.86 27.91 21.60 26.15 31.51 33.67 34.14 35.62 36.34 36.87 37.33 36.86 34.16 33.82 34.94 32.70 30.76 31.65 29.93 26.62 27.44 28.64 30.22 35.42 40.97 41.99 42.03 41.25 39.52 40.27 40.38 40.91 39.73 39.72 39.88 38.21 38.56 37.73 36.68 37.04 36.67 35.51 33.56
45.94 45.21 42.19 44.40 43.67 42.90 42.38 41.65 40.23 39.44 34.30 29.15 26.78 24.95 28.49 28.52 29.94 33.18 35.16 34.14 35.96 36.17 37.25 36.43 32.36 32.03 31.60 31.79 27.78 29.55 29.95 29.05 32.94 35.89 39.97 38.83 38.12 38.16 37.00 37.99 39.56 40.78 40.30 39.27 39.40 39.13 38.55 37.79 36.90 36.26 36.14 35.48 34.17 33.00
44.81 38.73 43.88 43.99 43.41 43.06 42.23 38.68 36.95 29.82 27.51 25.30 24.44 28.65 28.46 28.90 29.20 32.12 33.19 34.21 36.94 34.50 32.03 31.90 30.77 31.27 32.20 31.32 30.93 33.01 31.30 38.71 40.71 40.56 38.81 37.04 35.51 34.95 35.03 35.70 37.12 38.64 38.34 37.63 37.64 37.14 37.17 37.43 36.72 35.30 33.52 33.75 33.29 32.72
38.79 41.63 44.01 43.54 41.35 40.17 38.25 36.14 31.00 27.77 24.04 26.41 24.40 26.60 29.79 31.47 30.71 31.28 32.09 34.50 34.97 33.29 32.40 31.35 30.91 29.53 31.00 31.30 31.57 35.27 37.00 38.87 40.15 38.90 36.37 34.03 33.46 34.17 34.27 34.31 36.12 37.05 37.06 37.31 36.56 36.33 36.79 35.92 34.66 34.30 34.22 33.26 31.79 31.26
40.12 41.38 43.31 42.79 39.79 34.74 30.89 29.61 30.62 21.56 23.95 27.78 28.57 29.42 30.19 30.16 32.06 32.56 32.35 33.23 36.17 35.76 32.68 31.01 29.65 29.64 32.49 34.68 35.36 35.95 36.92 37.70 37.40 38.43 34.30 32.58 33.09 33.01 33.52 34.44 35.70 35.75 35.75 35.94 35.72 36.36 36.21 35.95 35.48 35.01 34.11 32.51 30.80 30.90
43.49 42.99 42.66 42.12 39.12 31.57 25.54 27.45 31.24 25.88 23.31 28.43 30.89 29.08 30.10 30.51 32.81 33.68 33.84 33.94 33.11 31.59 28.26 25.68 27.50 34.21 35.94 36.32 36.93 37.32 38.51 39.27 38.64 36.75 36.84 36.94 33.04 33.00 32.98 33.44 34.36 35.35 34.94 34.65 34.73 37.07 33.90 33.42 34.33 34.87 33.94 32.66 31.15 30.25
40.48 39.99 41.46 38.44 31.93 31.86 29.75 27.54 27.08 28.38 29.44 28.45 31.03 30.71 29.95 31.70 30.36 30.60 31.55 34.19 31.78 31.27 28.50 31.03 30.78 35.13 37.30 39.06 39.90 39.12 38.90 39.47 37.58 37.75 36.66 36.29 35.85 33.38 33.08 33.26 33.85 34.33 33.40 33.11 32.35 33.20 35.53 33.48 33.74 34.43 33.80 32.96 32.48 32.23
37.06 40.32 32.73 35.50 29.97 29.21 27.22 30.07 27.08 29.68 27.28 27.78 27.42 28.55 28.34 28.69 28.44 30.77 33.05 31.68 30.80 31.22 31.97 32.72 33.72 34.37 34.69 35.50 38.36 40.00 39.93 40.46 38.37 38.87 40.29 37.44 33.42 33.95 32.95 32.83 32.62 32.54 32.57 32.68 32.73 32.41 33.07 34.05 34.40 34.21 33.44 33.06 33.83 32.11
37.96 35.51 31.79 30.59 24.66 23.84 20.59 29.94 22.06 24.58 18.61 20.82 27.09 23.54 24.30 26.82 30.39 34.44 30.48 31.76 31.94 35.03 35.92 35.79 36.06 37.01 36.60 38.05 37.84 38.71 40.85 39.60 38.19 37.82 38.56 38.09 37.11 35.67 33.77 33.40 33.68 32.55 32.19 32.65 33.47 32.83 32.72 36.07 36.26 33.51 33.56 33.12 31.53 30.73
37.17 30.81 26.33 24.21 22.25 18.10 24.62 22.99 23.89 22.66 22.79 19.71 18.74 15.50 19.72 25.24 30.23 27.30 25.87 28.44 32.57 35.29 34.90 35.12 36.04 35.27 35.82 35.91 36.53 37.99 39.75 39.36 39.31 39.72 39.96 38.28 35.43 34.73 34.16 33.65 33.81 34.08 34.32 34.23 33.89 33.60 33.20 33.00 35.93 33.55 32.93 31.24 30.53 30.13
24.41 23.90 23.54 18.32 23.38 19.84 16.84 17.26 19.92 21.26 15.43 18.95 16.67 16.92 21.43 28.16 22.01 22.00 23.46 26.71 29.93 32.42 34.51 35.73 36.56 37.21 35.96 36.55 37.06 37.21 39.06 39.09 37.97 37.02 38.14 38.48 36.97 34.47 33.07 32.82 33.17 33.97 35.11 33.48 32.96 32.73 32.22 33.37 33.78 33.10 32.42 31.01 29.88 29.65
18.79 20.92 19.99 18.36 18.57 16.67 17.23 14.22 16.29 17.90 19.70 15.76 18.73 23.48 25.97 22.66 17.12 17.41 24.52 27.79 30.07 31.43 30.86 30.51 30.67 33.27 35.11 36.66 35.65 35.98 37.53 39.37 38.56 36.64 38.69 40.54 38.92 35.76 33.93 31.82 30.25 30.83 35.23 35.50 34.15 32.99 32.76 33.39 33.03 32.20 31.72 32.17 33.88 30.11
15.29 18.52 23.64 26.08 22.87 22.20 21.33 22.73 23.32 20.78 16.52 14.81 18.80 19.05 19.76 12.02 15.76 23.94 28.61 32.07 31.43 32.26 32.84 32.81 32.11 30.76 31.13 34.81 39.75 40.62 39.68 39.21 37.88 37.23 37.37 37.19 39.92 40.98 39.40 35.58 32.95 35.43 35.58 35.58 35.20 34.43 33.33 32.96 32.76 32.44 31.77 31.70 32.07 31.31
20.37 20.30 15.73 19.80 21.69 23.50 17.50 18.42 16.99 15.85 19.71 23.08 22.31 15.50 13.91 18.11 20.35 26.71 30.01 32.05 32.96 33.07 32.86 33.25 33.20 32.29 31.53 33.22 34.34 34.23 35.88 38.22 39.25 39.33 37.50 36.67 35.93 38.31 38.73 38.95 39.32 38.65 36.87 36.23 35.39 35.30 34.91 34.17 33.50 32.96 31.94 30.90 31.34 32.43
20.34 23.03 21.69 16.82 20.06 19.88 18.94 19.63 19.87 23.41 24.78 23.34 20.64 19.39 21.11 25.59 27.40 26.95 28.95 30.92 32.25 30.78 28.72 28.58 29.87 32.20 32.06 32.20 33.13 33.71 33.64 33.18 34.37 32.41 31.42 31.38 33.13 34.76 35.64 36.80 37.28 36.95 36.26 36.07 38.02 36.72 35.08 34.92 34.52 34.16 33.16 32.32 32.30 32.49
19.01 25.18 21.56 18.88 12.57 15.49 21.30 24.20 23.07 24.59 25.37 26.38 25.21 24.75 24.94 25.27 26.89 29.55 28.67 28.46 27.65 28.34 29.63 30.39 30.62 30.12 29.25 29.85 29.74 30.15 32.38 33.21 33.71 33.98 33.53 33.50 34.84 36.63 36.88 35.01 34.70 35.28 35.80 35.56 35.09 34.94 38.99 36.95 36.50 35.15 33.46 31.60 31.07 30.91
24.82 23.95 19.86 19.36 16.12 21.37 24.07 25.19 25.58 25.41 24.59 24.61 26.22 24.41 24.21 26.13 28.40 29.56 29.79 30.61 30.70 30.61 29.91 29.07 29.41 30.43 29.86 29.75 29.56 29.04 28.90 32.77 33.81 34.53 35.60 37.51 38.41 37.86 37.04 35.74 34.86 34.28 35.20 34.96 34.55 34.06 33.98 33.32 32.67 32.40 31.80 30.95 30.64 31.23
23.65 21.02 20.02 14.17 17.52 22.78 24.67 22.99 22.86 22.71 23.60 23.15 22.84 24.61 24.53 23.81 21.90 26.50 30.49 30.61 29.33 28.45 30.56 30.67 29.02 29.11 31.57 32.45 32.82 32.82 34.68 33.44 33.57 34.15 34.73 36.38 37.97 38.67 38.00 36.41 35.93 35.76 34.77 34.10 33.90 33.60 33.12 32.72 32.26 32.15 31.82 31.05 30.75 30.74
22.86 23.00 22.54 21.07 17.89 17.83 22.52 21.28 19.39 18.00 21.26 21.42 22.12 23.57 23.80 23.27 21.07 27.03 30.16 31.30 30.81 30.17 30.00 30.77 31.64 32.09 32.22 32.19 32.40 32.79 34.50 33.76 34.71 36.77 37.66 38.36 38.84 39.49 37.31 35.74 34.91 35.19 34.56 33.89 33.77 33.58 32.18 32.40 32.21 31.94 31.95 31.62 31.38 30.90
MSLP
1017.34 1017.81 1018.35 1018.83 1019.58 1020.01 1020.31 1020.44 1020.14 1019.85 1019.68 1019.70 1019.71 1019.53 1019.28 1018.74 1018.55 1018.57 1017.79 1017.54 1017.11 1016.46 1015.39 1014.92 1014.68 1014.63 1014.34 1014.54 1015.58 1016.63 1017.61 1017.93 1018.24 1018.11 1017.12 1015.81 1015.12 1014.75 1015.25 1016.32 1017.42 1018.51 1019.77 1020.24 1020.16 1019.53 1017.09 1016.24 1017.23 1016.93 1015.65 1015.75 1016.46 1017.39
1016.69 1017.02 1017.71 1018.20 1018.95 1019.66 1020.00 1020.12 1019.96 1019.64 1019.51 1019.51 1019.60 1019.49 1019.41 1019.16 1018.81 1018.68 1018.17 1017.94 1017.43 1017.50 1016.93 1016.23 1015.60 1015.36 1015.08 1015.33 1015.17 1015.96 1015.43 1015.72 1016.16 1016.46 1015.98 1014.96 1014.80 1014.68 1014.60 1015.73 1015.89 1016.60 1016.03 1016.70 1016.69 1015.47 1014.82 1014.95 1014.76 1014.85 1015.23 1015.83 1016.70 1017.65
1015.78 1016.34 1017.14 1017.63 1018.31 1019.18 1019.66 1019.75 1019.69 1019.38 1019.29 1019.25 1019.41 1019.34 1019.24 1019.08 1018.82 1018.93 1018.47 1018.12 1017.63 1017.81 1016.77 1016.46 1015.59 1015.25 1015.33 1015.27 1015.26 1015.52 1015.36 1014.80 1014.93 1014.88 1015.13 1015.07 1014.74 1014.06 1014.38 1014.39 1014.81 1014.97 1014.89 1015.32 1015.15 1013.61 1014.04 1014.43 1014.68 1015.02 1015.32 1015.95 1016.57 1017.51
1015.00 1015.72 1016.40 1017.13 1017.72 1018.49 1019.04 1019.39 1019.34 1019.13 1018.97 1019.07 1019.19 1019.11 1018.90 1018.88 1018.72 1018.70 1018.43 1018.13 1017.87 1017.95 1017.61 1015.95 1015.64 1015.41 1015.09 1015.13 1015.25 1015.19 1015.25 1014.87 1015.15 1015.44 1015.78 1015.71 1015.07 1013.80 1013.65 1013.20 1013.34 1013.82 1014.09 1014.07 1013.82 1013.32 1013.63 1013.80 1014.01 1014.62 1015.42 1015.99 1016.85 1017.74
1014.21 1014.95 1015.75 1016.57 1017.17 1017.86 1018.45 1018.79 1018.89 1018.88 1018.76 1018.97 1018.96 1018.86 1018.55 1018.58 1018.43 1018.34 1018.06 1017.61 1017.69 1017.75 1017.94 1016.54 1015.91 1015.24 1015.18 1015.21 1015.20 1015.31 1015.48 1015.46 1015.63 1016.11 1016.19 1015.81 1014.95 1014.81 1014.28 1013.66 1013.01 1012.57 1012.04 1012.14 1011.51 1011.00 1011.51 1011.85 1012.28 1013.75 1015.04 1015.83 1016.72 1017.62
1013.23 1014.24 1015.09 1015.83 1016.48 1017.29 1017.88 1018.28 1018.54 1018.52 1018.57 1018.72 1018.68 1018.60 1018.43 1018.38 1018.20 1018.33 1017.56 1017.42 1017.36 1017.47 1017.77 1017.65 1016.14 1015.49 1015.45 1015.15 1015.11 1015.48 1015.56 1015.72 1015.55 1015.58 1015.66 1015.14 1015.05 1015.27 1014.60 1013.44 1010.68 1010.28 1010.00 1009.85 1010.22 1010.45 1011.24 1011.53 1012.03 1013.24 1014.56 1015.49 1016.63 1017.60
1012.40 1013.47 1014.31 1015.02 1015.91 1016.70 1017.28 1017.89 1018.12 1018.16 1018.35 1018.35 1018.42 1018.29 1018.25 1018.12 1018.16 1018.20 1017.43 1017.59 1017.44 1017.63 1017.73 1017.60 1016.40 1015.96 1015.45 1015.26 1015.45 1015.85 1015.92 1016.04 1015.92 1015.58 1015.49 1015.31 1015.60 1015.21 1014.49 1012.93 1010.18 1009.43 1009.29 1009.68 1010.13 1010.81 1011.78 1012.00 1012.52 1013.48 1014.41 1015.54 1016.27 1017.64
1011.48 1012.67 1013.49 1014.38 1015.36 1016.04 1016.89 1017.54 1017.59 1017.91 1018.01 1018.04 1018.12 1017.94 1017.95 1017.82 1017.64 1017.48 1016.50 1016.58 1017.20 1017.54 1017.08 1017.08 1016.51 1016.55 1015.78 1015.38 1015.70 1015.81 1016.23 1016.34 1015.95 1015.55 1015.46 1015.31 1015.64 1015.04 1013.77 1011.24 1009.86 1009.20 1009.14 1009.50 1009.97 1010.37 1010.88 1011.55 1012.44 1013.54 1014.47 1015.49 1016.41 1017.19
1010.73 1011.92 1012.94 1013.67 1014.71 1015.59 1016.49 1016.96 1017.26 1017.53 1017.70 1017.81 1017.69 1017.54 1017.61 1017.42 1017.34 1016.75 1016.61 1016.77 1016.97 1017.32 1016.93 1016.39 1015.70 1015.52 1015.38 1015.17 1015.45 1015.90 1015.63 1016.21 1015.95 1015.42 1014.98 1014.89 1014.33 1012.94 1010.54 1009.53 1008.91 1008.35 1008.21 1008.30 1009.55 1010.48 1011.16 1011.79 1012.49 1013.32 1014.15 1015.16 1015.95 1016.57
1010.03 1011.17 1012.23 1013.17 1014.00 1015.14 1015.90 1016.56 1016.93 1017.31 1017.52 1017.58 1017.56 1017.25 1017.12 1016.87 1016.88 1017.07 1017.09 1017.07 1016.85 1016.49 1016.32 1015.21 1014.14 1014.80 1014.99 1015.19 1015.37 1015.55 1015.42 1015.26 1015.50 1014.40 1014.16 1013.71 1012.00 1010.18 1008.95 1008.05 1007.39 1007.16 1007.28 1008.00 1009.51 1010.60 1010.99 1011.50 1011.82 1012.40 1012.85 1013.85 1014.78 1015.76
1009.36 1010.46 1011.66 1012.43 1013.68 1014.70 1015.51 1016.18 1016.69 1017.18 1017.23 1017.18 1017.12 1016.97 1017.02 1016.78 1016.80 1016.71 1016.50 1016.49 1015.96 1015.64 1014.64 1013.27 1012.80 1013.51 1014.05 1014.16 1014.38 1014.61 1014.67 1014.70 1014.71 1013.30 1013.39 1012.23 1010.50 1008.24 1007.03 1006.61 1005.82 1005.61 1005.84 1006.15 1006.13 1006.83 1008.06 1008.67 1010.08 1011.27 1012.41 1013.28 1014.16 1015.15
1008.78 1009.92 1010.96 1012.18 1013.32 1014.26 1015.18 1015.79 1016.40 1017.01 1016.89 1017.26 1017.53 1017.35 1017.31 1016.96 1016.53 1016.27 1015.46 1014.82 1014.11 1012.66 1012.23 1011.43 1011.55 1012.25 1013.22 1013.48 1013.92 1014.36 1014.31 1014.21 1013.43 1012.83 1012.70 1010.49 1007.74 1005.56 1004.93 1004.69 1003.89 1003.69 1004.83 1005.31 1005.84 1006.49 1007.19 1008.08 1008.91 1009.93 1011.17 1012.26 1013.21 1014.28
1008.18 1009.44 1010.61 1011.69 1012.80 1013.92 1014.80 1015.45 1016.22 1016.74 1016.88 1017.09 1017.55 1017.49 1017.15 1016.73 1016.01 1014.92 1013.79 1013.21 1012.48 1011.17 1011.03 1010.66 1011.14 1011.80 1013.45 1013.80 1014.21 1014.17 1013.74 1013.07 1012.39 1012.26 1010.47 1008.11 1005.51 1004.47 1003.87 1003.10 1003.15 1003.37 1003.78 1004.21 1004.74 1005.45 1006.20 1007.09 1008.14 1009.03 1010.00 1011.22 1012.38 1013.57
1007.78 1009.06 1010.17 1011.35 1012.53 1013.61 1014.62 1015.43 1016.20 1016.66 1016.77 1017.21 1017.54 1017.20 1016.27 1015.15 1014.24 1013.24 1013.00 1012.77 1012.22 1011.49 1010.91 1010.91 1011.08 1011.78 1012.57 1013.42 1013.80 1013.59 1012.93 1012.48 1011.66 1010.17 1007.88 1005.72 1004.09 1003.21 1002.51 1002.30 1002.76 1002.90 1003.22 1003.47 1003.97 1004.91 1005.77 1006.43 1007.28 1008.29 1009.26 1010.42 1011.51 1013.04
1007.52 1008.76 1009.94 1011.26 1012.46 1013.63 1014.56 1015.31 1015.95 1016.34 1016.45 1017.10 1017.33 1016.40 1014.87 1013.89 1013.31 1012.77 1012.42 1012.37 1012.25 1011.95 1011.37 1011.23 1011.31 1011.58 1012.21 1012.64 1012.43 1012.37 1012.19 1010.38 1008.44 1006.56 1004.96 1003.42 1002.85 1002.71 1002.51 1002.43 1002.46 1002.73 1002.92 1003.27 1003.78 1004.47 1005.32 1006.05 1007.00 1008.07 1008.96 1009.90 1011.11 1012.72
1007.42 1008.93 1010.02 1011.14 1012.39 1013.59 1014.51 1015.33 1015.92 1016.18 1016.64 1017.08 1016.93 1015.83 1014.57 1014.06 1013.14 1012.55 1012.55 1012.50 1012.71 1012.33 1011.93 1011.48 1011.29 1011.27 1011.09 1010.95 1011.10 1009.98 1009.22 1006.88 1005.01 1004.20 1003.61 1003.42 1003.48 1003.24 1002.97 1002.68 1002.30 1002.30 1002.51 1002.87 1003.40 1003.91 1004.82 1005.65 1006.45 1007.53 1008.80 1009.70 1010.93 1012.22
1007.16 1008.16 1009.54 1010.84 1012.19 1013.46 1014.47 1015.16 1015.78 1016.44 1016.67 1016.50 1015.79 1015.25 1014.61 1013.98 1013.43 1012.78 1012.41 1012.35 1012.82 1012.81 1012.37 1011.92 1011.29 1010.43 1009.67 1009.63 1009.29 1008.13 1006.88 1005.19 1004.12 1003.87 1003.89 1004.04 1004.18 1003.85 1003.52 1003.09 1002.90 1002.92 1002.96 1003.12 1003.51 1004.12 1004.97 1005.90 1006.86 1007.94 1008.95 1009.78 1010.76 1012.04
1007.08 1008.05 1009.21 1010.63 1012.07 1013.54 1014.54 1015.22 1015.99 1016.22 1016.14 1015.67 1015.34 1014.42 1014.11 1013.37 1012.96 1012.48 1012.20 1012.12 1012.46 1012.60 1012.75 1012.37 1011.91 1010.20 1009.20 1008.46 1007.97 1007.24 1006.46 1005.75 1005.32 1005.16 1005.26 1005.06 1004.85 1004.48 1004.10 1003.66 1003.28 1003.15 1003.32 1003.25 1003.60 1004.14 1004.81 1005.72 1006.63 1007.38 1008.30 1009.54 1010.91 1012.08
1006.50 1007.57 1009.12 1010.50 1011.89 1013.55 1014.73 1015.83 1016.00 1015.77 1015.27 1014.84 1014.27 1013.99 1013.48 1012.87 1012.43 1012.12 1012.07 1012.00 1012.11 1012.58 1012.66 1012.47 1011.49 1009.83 1008.62 1007.95 1007.84 1007.75 1007.04 1006.55 1006.32 1005.94 1005.78 1005.52 1005.11 1004.70 1004.38 1004.04 1003.53 1003.46 1003.62 1003.74 1004.06 1004.57 1005.22 1005.78 1006.43 1007.44 1008.52 1009.47 1010.50 1011.51
1006.65 1008.09 1009.41 1010.67 1011.90 1013.46 1014.56 1015.32 1015.65 1015.32 1014.46 1013.51 1013.08 1012.81 1012.53 1012.12 1011.76 1011.52 1011.42 1011.48 1012.05 1012.37 1012.25 1011.39 1010.13 1008.75 1008.14 1008.17 1008.27 1008.49 1007.58 1007.01 1006.61 1006.25 1005.97 1005.49 1005.22 1005.30 1005.19 1004.67 1004.44 1004.22 1004.08 1004.31 1004.65 1004.95 1005.68 1006.48 1006.98 1007.51 1008.36 1009.43 1010.27 1010.89
1007.86 1009.10 1010.32 1011.21 1012.72 1013.46 1013.91 1014.44 1014.83 1014.40 1013.77 1013.20 1012.45 1012.25 1011.68 1011.34 1011.18 1010.95 1010.75 1010.69 1010.99 1010.71 1010.10 1009.32 1008.68 1008.05 1007.74 1007.70 1007.73 1007.43 1007.15 1007.02 1006.66 1006.23 1005.95 1005.76 1005.42 1005.03 1004.83 1004.69 1004.88 1004.89 1005.04 1005.24 1005.54 1005.51 1005.76 1006.41 1006.99 1007.57 1008.29 1009.18 1010.13 1010.88
1007.79 1009.36 1010.92 1011.98 1013.15 1013.85 1014.04 1014.00 1013.96 1013.75 1013.81 1012.91 1012.55 1012.06 1011.55 1010.83 1010.34 1009.82 1009.40 1009.56 1009.18 1008.74 1008.34 1008.10 1007.72 1007.39 1006.96 1006.75 1006.62 1006.44 1006.56 1006.60 1006.36 1005.70 1005.35 1005.36 1005.36 1005.22 1005.36 1005.32 1005.29 1005.53 1005.60 1005.47 1005.60 1005.85 1006.10 1006.42 1006.78 1007.43 1008.23 1008.98 1009.81 1010.66
1007.83 1009.32 1011.12 1012.16 1013.03 1013.55 1013.81 1013.79 1013.93 1013.49 1013.28 1012.74 1012.03 1011.66 1011.00 1010.29 1009.44 1008.84 1008.58 1008.06 1007.65 1006.86 1006.57 1006.48 1006.20 1005.98 1006.00 1005.76 1005.55 1005.51 1005.81 1006.01 1005.52 1005.04 1005.05 1005.00 1005.01 1005.25 1005.34 1005.20 1005.36 1005.80 1005.83 1005.41 1005.44 1005.86 1006.15 1006.13 1006.43 1007.16 1007.99 1008.82 1009.60 1010.49
1008.12 1009.71 1010.83 1011.64 1012.13 1013.12 1013.49 1013.43 1013.29 1012.99 1012.81 1012.58 1012.15 1011.42 1010.51 1009.62 1008.96 1008.64 1007.75 1007.13 1006.50 1005.88 1005.68 1005.52 1005.60 1005.59 1005.61 1005.57 1005.34 1005.00 1004.60 1004.58 1004.63 1004.59 1004.47 1004.62 1005.04 1005.30 1005.03 1004.83 1004.96 1005.27 1005.22 1005.27 1005.36 1005.62 1006.01 1006.21 1006.33 1006.92 1007.57 1008.34 1009.02 1009.69
1008.71 1010.27 1010.64 1011.30 1011.70 1012.48 1012.56 1012.53 1012.46 1012.43 1012.23 1011.85 1011.55 1010.77 1010.06 1009.64 1009.18 1008.19 1007.11 1006.53 1005.89 1005.46 1004.99 1004.84 1004.96 1005.05 1005.06 1004.87 1004.76 1004.42 1004.06 1004.21 1004.31 1004.52 1004.26 1004.40 1004.60 1004.50 1004.49 1004.48 1004.57 1004.64 1004.73 1004.93 1005.22 1005.36 1005.60 1006.07 1006.37 1006.77 1007.36 1007.93 1008.46 1008.97
1008.22 1009.34 1009.78 1010.17 1010.86 1011.21 1011.25 1011.45 1011.39 1011.16 1011.10 1011.07 1010.65 1010.11 1009.77 1009.53 1008.79 1007.49 1006.13 1005.38 1005.19 1005.18 1005.04 1005.10 1005.08 1004.96 1004.77 1004.47 1004.19 1004.04 1004.05 1003.95 1003.93 1003.99 1003.84 1003.80 1003.66 1003.25 1003.68 1003.96 1004.17 1004.06 1004.19 1004.37 1004.68 1004.96 1005.08 1005.21 1006.12 1006.73 1006.99 1007.57 1008.21 1008.95
1007.39 1008.37 1008.96 1009.15 1009.66 1009.86 1010.04 1009.93 1009.82 1009.74 1010.09 1010.11 1009.75 1009.68 1009.64 1009.15 1007.86 1006.53 1005.35 1005.01 1005.10 1005.35 1005.40 1005.41 1005.38 1005.46 1005.34 1004.89 1004.42 1004.27 1004.05 1004.01 1004.08 1004.04 1003.85 1003.50 1003.04 1002.77 1002.99 1003.17 1002.76 1002.72 1003.09 1003.57 1003.97 1004.09 1004.32 1004.67 1005.16 1005.91 1006.40 1006.96 1007.55 1008.33
1006.44 1007.39 1008.10 1008.89 1008.94 1008.90 1008.99 1008.91 1008.83 1008.89 1008.85 1008.68 1008.55 1008.67 1008.16 1007.35 1006.26 1005.37 1005.12 1005.06 1005.04 1005.10 1005.28 1005.34 1005.29 1005.21 1005.15 1005.02 1004.80 1004.65 1004.24 1003.86 1003.68 1003.52 1003.14 1002.75 1002.49 1002.24 1002.19 1002.09 1001.49 1002.07 1002.46 1002.73 1002.95 1003.38 1003.65 1003.91 1004.46 1005.08 1005.63 1006.17 1006.74 1007.40
1006.00 1006.51 1007.34 1008.13 1008.29 1008.19 1008.09 1007.87 1007.72 1007.19 1006.68 1006.87 1006.99 1006.89 1006.29 1005.58 1005.04 1004.75 1004.50 1004.43 1004.45 1004.69 1004.81 1004.76 1004.59 1004.47 1004.33 1004.09 1004.03 1004.07 1003.95 1003.83 1003.71 1003.42 1003.18 1002.72 1002.17 1001.69 1001.37 1000.99 1001.42 1001.73 1001.71 1002.04 1002.46 1002.49 1002.84 1003.07 1003.55 1004.30 1004.90 1005.44 1005.97 1006.71
1005.33 1005.66 1006.28 1006.84 1006.93 1006.59 1006.23 1005.92 1005.51 1005.64 1005.67 1005.63 1005.47 1005.19 1004.97 1004.82 1004.31 1003.96 1004.19 1004.27 1004.33 1004.27 1004.06 1003.95 1003.85 1003.80 1003.72 1003.64 1003.41 1003.24 1003.06 1002.92 1002.87 1002.75 1002.41 1001.95 1001.41 1001.26 1001.26 1001.16 1001.24 1000.96 1000.99 1001.67 1002.26 1001.80 1002.02 1003.02 1003.48 1004.01 1004.43 1004.97 1005.33 1005.93
1004.41 1004.96 1005.23 1005.66 1005.58 1004.90 1004.93 1004.94 1005.09 1005.15 1005.02 1004.96 1004.82 1004.82 1004.36 1004.00 1003.59 1003.51 1003.59 1003.40 1003.13 1002.89 1002.71 1002.49 1002.38 1002.36 1002.33 1002.29 1002.35 1002.31 1002.03 1001.67 1001.46 1001.18 1001.10 1000.85 1000.64 1000.57 1000.40 1000.33 1000.48 1000.67 1001.05 1001.25 1001.50 1001.44 1001.26 1002.04 1002.78 1003.39 1003.90 1004.12 1004.52 1005.09
1003.41 1003.79 1004.20 1004.23 1004.07 1004.25 1004.21 1004.47 1004.42 1004.61 1004.45 1004.40 1004.14 1004.10 1003.88 1003.51 1002.58 1002.13 1001.50 1001.46 1001.42 1001.25 1000.86 1000.78 1000.56 1000.38 1000.55 1000.42 1000.43 1000.50 1000.47 1000.33 1000.04 1000.05 999.90 999.84 999.81 999.72 999.47 999.46 999.69 999.78 1000.02 1000.43 1000.80 1000.73 1000.84 1001.36 1002.09 1002.57 1002.99 1003.37 1003.72 1004.04
1002.68 1002.92 1003.26 1003.71 1003.75 1003.56 1003.29 1003.94 1003.74 1003.53 1003.42 1003.25 1002.85 1002.62 1002.33 1002.03 1000.89 999.94 998.90 999.32 999.40 999.20 999.08 999.05 999.06 999.12 999.18 999.16 999.16 999.17 999.23 999.25 998.99 998.74 998.75 998.82 998.88 998.76 998.68 998.80 998.81 999.08 999.28 999.32 1000.13 1000.47 1000.68 1001.02 1001.31 1001.84 1001.95 1002.23 1002.80 1003.35
Wind_Speed
19 18 16 14 13 12 10 10 7 7 9 4 4 8 12 13 15 9 1 3 1 3 3 1 0 3 2 3 6 6 5 2 1 2 4 5 4 7 5 7 9 10 9 6 3 2 10 10 5 8 5 3 7 7
21 18 17 16 15 14 11 10 7 6 6 6 6 7 9 10 10 12 2 1 1 1 3 3 5 2 1 3 3 10 2 5 6 4 4 1 2 2 5 5 2 4 8 8 11 9 1 15 1 5 5 6 7 8
22 19 18 17 15 15 13 11 8 5 4 6 7 7 7 9 10 8 3 2 2 1 4 1 6 5 3 4 2 6 3 2 4 2 1 2 4 5 5 6 4 4 3 3 3 4 7 12 4 5 5 6 7 8
22 22 19 18 17 17 14 12 9 6 6 6 7 10 7 7 9 8 3 1 1 2 3 2 0 2 3 2 3 2 3 1 4 3 3 2 3 2 3 2 4 4 7 7 5 2 3 7 14 10 7 8 8 10
24 23 21 19 17 16 15 13 10 7 6 6 9 12 7 9 9 6 4 3 3 4 2 4 4 4 3 4 5 3 3 3 2 1 2 4 1 1 1 2 3 7 9 7 8 10 7 5 16 16 12 12 12 13
25 23 23 20 18 17 16 13 11 9 7 8 9 9 9 10 8 3 2 2 3 3 3 4 2 2 4 6 6 5 4 2 1 3 4 1 2 2 3 5 6 12 7 7 3 7 3 2 10 16 13 14 13 13
26 25 22 20 18 17 16 13 12 9 7 8 10 9 11 10 5 4 2 1 1 0 3 2 4 1 3 4 2 2 1 1 2 2 3 3 2 3 2 5 6 10 7 6 7 8 4 5 7 14 11 12 16 11
27 25 22 21 19 18 16 15 10 8 7 8 10 10 12 13 6 5 2 5 5 2 1 3 2 2 4 4 3 3 2 1 2 2 1 3 1 2 5 10 9 5 8 8 11 4 1 7 12 12 11 14 14 14
28 25 24 22 20 20 18 15 11 7 8 10 11 15 4 3 3 2 5 6 2 2 5 4 5 4 4 1 3 1 3 2 0 2 4 5 4 8 10 12 9 14 12 9 9 8 7 10 15 15 16 16 16 16
29 25 24 23 23 21 19 14 10 6 6 9 5 3 3 2 4 7 1 2 1 1 2 4 2 3 4 4 2 3 1 3 4 7 3 4 6 8 7 11 9 9 12 13 9 7 9 10 17 20 22 18 15 16
29 26 24 23 23 22 19 15 10 2 6 3 2 2 3 6 2 2 3 4 4 5 6 5 7 6 4 5 4 3 4 2 4 5 7 5 5 8 16 20 18 17 14 20 19 15 15 14 19 19 19 18 15 16
30 27 25 25 23 23 19 15 11 3 1 2 1 2 2 2 1 3 4 4 6 7 7 6 4 4 3 2 3 2 4 2 6 4 3 5 7 11 11 19 24 21 12 12 15 11 15 13 19 19 18 18 17 16
30 28 27 25 25 23 19 15 13 5 2 2 1 2 2 3 5 6 6 3 4 3 4 5 5 5 3 2 2 1 5 6 4 2 6 7 5 5 10 11 6 7 10 11 14 13 13 13 17 19 19 17 17 17
31 30 27 26 24 22 19 16 13 6 2 3 4 5 6 5 5 3 3 2 4 8 2 5 3 3 3 4 4 5 3 2 3 4 8 5 8 11 11 8 7 9 9 10 13 14 15 16 18 18 18 18 18 18
31 29 28 26 24 22 19 17 13 2 2 3 3 6 6 4 3 5 3 1 2 4 4 2 2 3 2 4 3 3 2 7 9 7 6 5 4 4 4 4 7 7 7 8 9 13 14 14 16 16 16 17 17 16
30 26 19 28 25 22 21 14 4 2 2 3 6 4 5 5 5 2 2 3 4 3 3 2 2 3 5 4 5 9 6 8 5 5 1 3 4 5 5 4 6 7 9 9 10 10 13 15 17 16 16 17 17 18
30 3 30 29 27 23 22 5 3 3 4 5 4 6 8 6 6 3 2 1 1 2 1 3 4 5 3 3 5 5 5 3 4 3 4 6 6 6 6 4 4 2 5 7 8 8 9 10 13 15 17 17 16 16
7 18 32 30 22 18 3 3 3 3 6 5 4 6 6 6 6 4 4 2 2 1 2 2 4 4 3 5 3 4 5 5 7 5 5 5 6 6 4 5 3 2 4 6 7 8 12 14 16 14 17 16 15 14
18 22 34 31 16 6 4 3 3 3 7 4 7 7 6 5 7 7 5 5 3 3 2 1 6 4 3 2 6 6 6 7 6 6 1 2 4 7 5 5 5 1 3 4 7 7 8 11 10 10 11 13 12 12
32 34 32 28 12 3 4 3 3 3 3 4 3 6 7 7 5 6 6 4 5 4 5 6 6 3 1 3 2 6 7 6 6 6 6 4 1 1 0 4 4 5 1 3 4 7 6 5 6 9 11 13 13 14
28 21 28 13 3 4 2 5 4 4 3 3 2 3 4 3 3 6 7 5 7 5 4 4 3 6 5 3 4 2 7 7 7 5 5 8 4 4 4 3 3 1 0 2 3 5 8 7 6 8 11 11 10 11
8 25 4 4 3 2 0 3 1 1 2 3 2 3 3 3 3 4 3 5 4 6 6 6 7 9 10 11 8 7 7 11 6 7 6 4 4 3 3 2 1 2 3 3 4 4 5 6 6 9 10 10 12 11
19 7 5 3 4 5 3 4 3 3 2 3 2 3 3 4 4 0 3 4 5 6 9 9 13 14 11 10 5 6 10 10 7 6 6 5 4 4 4 3 3 4 4 4 4 4 4 6 10 10 10 11 11 11
12 4 5 6 5 4 4 5 2 2 3 2 3 3 3 3 1 2 4 4 4 4 5 10 7 6 6 6 8 9 7 5 7 8 7 5 4 5 5 4 4 4 4 3 4 5 5 4 11 11 12 13 14 14
8 4 6 5 3 5 5 5 5 5 5 6 4 3 3 2 2 4 5 5 6 7 6 3 4 5 6 6 6 5 6 6 6 7 5 5 5 3 3 4 4 4 4 5 5 6 5 6 10 11 13 13 16 19
6 6 10 10 5 6 6 6 6 7 3 3 4 3 1 2 3 6 3 5 3 3 3 4 3 4 4 4 4 2 1 3 3 4 4 4 5 3 4 4 4 4 6 7 7 9 9 10 12 14 13 17 22 18
6 5 4 1 4 3 3 4 4 3 6 6 3 3 3 4 6 4 2 1 3 3 2 3 3 3 5 6 6 5 3 2 3 4 4 5 6 5 6 6 7 5 6 10 9 10 12 13 13 14 13 13 15 16
4 5 9 8 4 5 4 3 4 5 4 4 3 6 6 6 5 3 3 3 3 3 3 3 3 2 3 6 5 5 6 5 5 5 6 6 6 5 6 6 5 8 7 9 10 9 10 12 13 13 14 15 14 14
4 6 7 5 4 4 5 6 6 6 5 4 5 6 5 5 3 2 3 3 3 2 3 4 6 5 6 5 4 4 4 4 5 8 10 8 7 6 5 5 6 5 6 6 15 13 13 13 13 13 14 13 12 12
4 7 4 8 6 9 7 7 5 3 3 6 4 4 4 4 4 3 2 3 4 7 8 8 7 7 7 7 7 7 6 6 7 8 9 10 9 5 4 5 5 4 5 7 7 8 12 11 11 8 11 10 10 12
8 7 4 5 6 8 8 4 4 4 4 5 7 10 13 11 9 6 7 9 10 11 12 12 11 10 10 11 10 10 11 9 11 14 13 10 9 8 5 5 5 5 6 8 8 8 10 11 10 10 13 15 16 17
8 9 8 6 5 4 2 5 7 10 11 10 11 9 10 11 17 9 12 12 13 14 18 18 15 14 13 12 11 11 17 13 12 9 9 7 8 10 7 5 5 5 6 7 6 7 10 13 12 13 14 17 17 19
5 7 8 7 2 3 6 5 4 5 9 13 13 13 13 15 19 11 7 8 13 14 15 14 13 12 14 15 14 13 16 12 16 18 17 16 17 13 5 5 5 6 8 7 8 8 11 16 14 16 16 15 17 17
Wind_Direction
213 214 222 226 230 237 243 265 293 323 338 323 346 347 346 353 345 345 304 349 299 297 302 333 185 205 312 126 147 131 93 237 84 209 191 221 201 214 149 140 172 164 151 191 184 177 278 138 77 173 194 79 136 138
212 214 218 219 221 231 233 254 275 301 327 333 320 333 339 349 345 338 280 314 332 208 302 320 310 282 217 307 106 177 183 146 175 169 233 243 186 129 173 205 149 193 184 180 178 211 126 184 283 181 144 148 161 135
209 211 218 212 214 226 227 244 259 280 315 330 327 306 325 339 351 343 287 259 99 288 276 227 225 187 207 221 331 141 249 197 198 130 264 223 215 144 165 229 158 238 149 178 71 219 185 197 202 176 166 152 149 133
204 209 210 213 214 218 216 233 246 264 293 307 310 317 318 322 328 351 294 344 52 66 278 212 275 206 72 181 230 21 337 70 57 59 121 195 207 69 222 227 135 207 133 176 254 204 61 211 204 169 178 143 134 134
200 207 206 209 215 220 212 223 237 251 280 303 313 307 310 317 319 306 251 233 218 136 236 307 305 155 174 200 186 194 242 169 148 120 147 223 154 109 321 13 214 191 180 170 213 194 177 202 194 165 166 164 156 150
195 202 204 207 211 217 211 216 231 241 264 293 302 303 318 322 328 313 279 181 172 163 107 295 306 207 187 195 177 192 215 229 221 170 212 159 110 136 164 216 240 187 219 200 213 122 90 38 161 158 164 163 158 158
194 198 201 206 208 215 202 212 220 237 257 289 290 309 316 310 311 241 304 358 341 308 140 261 285 317 236 157 89 101 20 235 218 217 229 189 190 150 173 220 254 203 207 152 129 110 66 173 173 166 153 160 152 152
192 194 196 202 206 199 198 207 208 221 255 280 296 308 305 304 286 274 246 213 173 156 44 192 226 251 209 185 147 157 143 190 234 221 344 201 84 158 241 238 256 239 190 179 175 131 138 140 138 154 151 154 162 163
189 190 197 195 202 190 196 199 203 222 262 285 301 299 287 215 220 295 101 86 76 199 193 176 179 217 168 206 118 212 193 153 70 197 222 128 198 217 215 218 210 216 194 200 146 134 136 154 162 165 165 168 174 172
184 187 192 197 189 187 190 191 191 218 272 297 285 231 252 97 315 128 208 184 251 289 221 217 189 173 179 176 210 129 207 198 177 225 113 186 250 241 221 229 232 220 205 144 134 176 178 185 180 180 185 180 178 174
181 185 190 185 178 184 180 176 175 215 262 204 231 261 354 318 198 215 228 204 168 221 201 214 201 152 211 165 169 216 178 162 184 224 166 213 257 228 214 223 231 229 208 196 201 200 191 183 178 178 182 183 178 173
179 185 180 174 176 175 173 171 162 191 69 101 289 285 298 298 209 225 210 212 223 225 179 179 180 131 159 105 106 223 179 131 227 128 139 248 241 221 203 218 231 232 214 215 195 191 183 177 181 181 177 179 180 168
177 179 173 169 169 170 170 169 168 118 117 167 219 268 209 206 233 221 207 211 248 212 180 179 155 125 108 85 57 244 192 209 95 145 221 228 260 256 226 232 219 203 205 202 193 195 172 174 174 177 177 177 170 169
174 172 168 164 165 165 167 159 153 150 205 158 191 240 219 205 232 237 318 330 314 328 184 203 94 130 130 117 147 203 216 142 217 228 227 221 232 233 233 209 189 211 207 199 181 178 175 175 178 178 174 171 168 171
171 169 162 159 159 161 164 151 157 184 160 182 206 236 233 271 286 277 260 327 334 319 301 73 73 105 117 151 194 127 136 234 205 215 215 223 282 301 284 176 203 203 196 171 169 180 178 172 171 171 172 171 163 162
165 156 160 157 156 158 153 143 149 149 70 185 231 260 255 272 277 329 2 -0 9 333 336 351 167 191 192 163 171 210 183 225 222 216 292 46 4 348 324 294 235 194 173 172 177 175 170 172 172 169 163 165 164 166
160 119 165 157 153 153 146 129 124 150 201 218 232 239 277 290 272 267 265 213 75 340 256 256 232 239 94 187 210 190 219 331 22 62 54 32 345 334 325 331 308 225 178 168 163 157 159 152 150 157 166 171 164 163
138 150 158 149 144 142 96 66 135 187 230 228 240 243 229 252 267 280 287 170 152 150 321 320 300 251 227 200 191 354 0 345 32 33 36 348 337 334 344 335 302 195 241 178 156 151 153 160 167 174 165 160 152 153
154 152 150 147 132 100 128 153 177 224 220 231 224 239 244 249 251 263 274 274 153 158 183 229 260 232 243 35 43 2 8 10 354 339 49 92 356 333 343 342 337 284 249 168 152 164 168 172 168 162 161 158 162 160
146 145 147 142 124 117 114 129 175 250 245 224 216 229 231 236 234 233 237 214 150 170 206 214 223 252 265 2 26 307 309 323 330 332 325 332 108 186 289 337 335 314 237 141 138 132 135 145 158 162 162 168 167 172
130 152 150 132 77 71 103 147 185 226 246 265 7 312 247 174 219 238 247 218 196 205 226 213 243 268 261 196 199 266 307 296 309 290 304 307 313 337 333 346 324 339 38 165 148 146 158 172 163 164 166 172 171 171
129 138 86 76 95 136 177 192 229 37 218 257 261 191 256 240 239 217 195 209 219 228 221 232 228 228 246 246 222 194 230 263 273 288 287 291 304 316 291 229 185 251 228 193 169 168 175 170 163 164 170 171 163 161
110 101 71 126 129 171 212 151 182 211 230 255 232 236 222 219 229 108 231 202 222 222 228 231 236 244 252 256 247 206 221 228 250 261 268 272 267 274 270 258 190 209 224 218 172 170 178 176 169 160 170 166 160 159
104 92 139 162 138 172 150 184 215 206 203 211 233 253 261 241 156 228 242 225 243 248 218 229 236 247 245 246 247 250 248 225 247 255 249 247 232 260 248 231 196 208 200 203 179 161 177 184 163 168 177 170 169 164
107 170 136 150 184 144 174 184 185 194 215 201 210 261 270 141 245 247 239 242 232 245 250 233 212 232 240 250 250 249 214 211 225 240 245 240 245 226 239 240 215 198 188 172 198 182 176 170 178 180 185 180 178 173
151 177 178 171 156 160 177 172 203 195 181 190 234 232 138 218 247 251 240 215 254 96 70 49 19 356 329 309 282 268 337 350 298 249 244 228 235 220 245 244 245 248 202 200 192 192 186 172 184 193 190 188 184 176
150 155 162 131 148 143 194 195 189 162 173 196 209 165 184 229 239 247 248 29 125 116 63 27 23 360 334 327 333 336 300 292 241 242 263 281 270 243 244 236 231 241 171 196 201 195 189 186 187 195 193 190 190 188
165 143 155 169 171 180 173 190 160 182 191 213 177 180 201 208 234 212 150 168 145 162 180 235 256 269 279 299 280 277 296 273 274 294 299 277 249 239 230 230 236 199 182 198 196 198 195 189 192 196 194 193 193 189
146 157 121 159 165 175 209 182 199 215 195 166 180 200 224 217 219 224 231 196 208 215 250 267 276 273 270 250 233 248 260 271 268 272 279 283 295 286 233 232 233 204 187 193 206 192 195 189 190 196 197 195 190 185
155 162 154 166 178 205 198 202 215 195 191 208 217 268 267 264 244 237 266 275 266 259 256 259 259 250 253 255 257 255 242 236 245 247 251 256 263 257 248 221 222 209 169 184 210 197 184 191 193 198 190 188 186 185
150 184 155 166 213 220 224 217 213 225 223 226 231 240 250 259 263 247 242 245 246 247 250 251 246 241 242 237 236 242 258 253 245 246 246 253 253 252 238 230 212 184 183 187 194 192 179 180 192 194 198 193 193 191
173 181 190 210 235 193 141 189 219 233 243 244 243 240 250 252 255 255 242 242 247 249 249 251 251 250 245 243 237 237 238 248 252 244 248 249 240 247 249 208 194 185 175 185 200 195 183 185 193 199 200 199 197 197
174 191 206 232 245 228 197 175 231 237 228 234 238 235 239 244 256 261 247 211 234 242 246 247 250 253 249 246 244 245 245 245 249 248 243 239 249 254 226 216 198 186 188 182 195 208 200 201 196 205 201 195 200 203